sat.trackr.live / text

‹ back to catalog

ARVAKER-2

NORAD 64567 · 2025-135AR

PAYLOAD ACTIVE UNKNOWN

§ Identity

Operator
Country
NOR
Launch date
2025-06-23
Launch site
AFWTR
Launch vehicle
Mass (kg)
RCS (m²)

External: N2YO · Heavens-Above · Gunter

§ Orbital elements

Epoch: 2026-05-25T04:29:25.579104Z

Period
96.42 min
Inclination
97.7712°
Eccentricity
0.0002378
Mean motion
14.93446041 rev/d
Perigee alt
585.5 km
Apogee alt
588.9 km
Semi-major
6,965.3 km
B*
1.9262e-4
RAAN
259.6046°
Arg perigee
65.1068°
Mean anomaly
295.0398°
Rev number
5,044

§ Raw data

ARVAKER-21 64567U 25135AR  26145.18710161  .00001968  00000+0  19262-3 0  99932 64567  97.7712 259.6046 0002378  65.1068 295.0398 14.93446041 50446

JSON: /api/v1/satellites/64567 · /tle

For live sub-satellite position, see the globe view (requires WebGL).

§ Visibility from observer

Set your observer location to see the next 7 days of passes ≥ 10°. The values pass through the URL so the page stays shareable.

No JS? Fill the form by hand. The geolocation button needs JavaScript.